Location: Newark
(41.1142°N, 73.9831°W)
Time: 11:57:51
(UTC+00:00)

ISS - Pass Details

Date: 20 September 2019
Orbit: 411 x 421 km, 51.6° (Epoch: 18 October)

Event Time Altitude Azimuth Distance (km) Brightness Sun altitude
Rises 00:42:39 0° 237° (WSW) 2,332 0.6 -20.0°
Reaches altitude 10° 00:44:44 10° 239° (WSW) 1,473 -0.5 -20.4°
Enters shadow 00:47:55 73° 301° (WNW) 433 -3.7 -20.9°
